GW2242 Weather Reports


Display with metric or nautical units.
time (UTC)temp
F
wind
direction
speed
MPH
gust
MPH
rain 1hr
in
rain 24hr
in
rain mn
in
humidity
%
barometer
mb
20260504184343 74 203 0.0 1.0 0.00 0.00 0.00 33 1010.4
20260504183839 73 231 3.0 5.0 0.00 0.00 0.00 36 1010.2
20260504183337 72 271 4.0 6.0 0.00 0.00 0.00 34 1010.4
20260504182834 73 263 1.0 3.0 0.00 0.00 0.00 36 1010.3
20260504182331 72 179 2.0 2.0 0.00 0.00 0.00 36 1010.5
20260504181828 72 46 4.0 7.0 0.00 0.00 0.00 33 1010.4
20260504181325 72 259 1.0 1.0 0.00 0.00 0.00 35 1010.5
20260504180824 73 279 8.0 13.0 0.00 0.00 0.00 33 1010.7
20260504180322 72 249 2.0 3.0 0.00 0.00 0.00 35 1010.7
20260504175820 72 289 2.0 3.0 0.00 0.00 0.00 36 1010.8
20260504175317 72 276 1.0 2.0 0.00 0.00 0.00 37 1010.9
20260504174815 72 293 4.0 6.0 0.00 0.00 0.00 35 1010.8
20260504174312 72 56 1.0 2.0 0.00 0.00 0.00 37 1011.3
20260504173809 71 228 2.0 3.0 0.00 0.00 0.00 37 1011.2
20260504173305 70 268 1.0 2.0 0.00 0.00 0.00 37 1010.9
20260504172803 71 236 3.0 5.0 0.00 0.00 0.00 37 1010.9
20260504172259 71 258 2.0 3.0 0.00 0.00 0.00 35 1011.0
20260504171755 70 247 3.0 5.0 0.00 0.00 0.00 38 1011.3
20260504171252 70 253 5.0 6.0 0.00 0.00 0.00 35 1011.3
20260504170749 70 252 2.0 2.0 0.00 0.00 0.00 36 1011.3
20260504170246 70 131 3.0 3.0 0.00 0.00 0.00 37 1011.2
20260504160205 68 216 2.0 3.0 0.00 0.00 0.00 39 1012.3
20260504151133 66 256 1.0 1.0 0.00 0.00 0.00 40 1012.8
20260504150630 66 262 4.0 6.0 0.00 0.00 0.00 39 1012.7
20260504150127 65 306 3.0 5.0 0.00 0.00 0.00 42 1012.9
20260504141055 63 259 4.0 5.0 0.00 0.00 0.00 46 1012.9
20260504140552 63 158 1.0 2.0 0.00 0.00 0.00 47 1012.9
20260504130516 59 258 3.0 5.0 0.00 0.00 0.00 55 1013.9
20260504110403 49 187 2.0 3.0 0.00 0.00 0.00 71 1014.1
20260504100321 46 203 0.0 1.0 0.00 0.00 0.00 70 1014.0
20260504081714 46 217 0.0 0.0 0.00 0.00 0.00 59 1013.5
20260504081211 46 217 0.0 0.0 0.00 0.00 0.00 58 1013.8
20260504080707 47 217 0.0 0.0 0.00 0.00 0.00 57 1014.0
20260504080204 47 228 2.0 2.0 0.00 0.00 0.00 56 1013.7
20260504070131 49 215 2.0 2.0 0.00 0.00 0.00 52 1013.7
20260504050520 49 172 0.0 0.0 0.00 0.00 0.00 53 1013.2
20260504050017 49 215 0.0 1.0 0.00 0.00 0.00 54 1013.4
20260504045514 48 250 2.0 2.0 0.00 0.00 0.00 53 1013.0
20260504045009 48 221 0.0 0.0 0.00 0.00 0.00 53 1013.4
20260504044507 49 207 0.0 0.0 0.00 0.00 0.00 54 1013.2
20260504044004 48 221 0.0 0.0 0.00 0.00 0.00 53 1013.2
20260504043500 48 200 0.0 0.0 0.00 0.00 0.00 55 1013.3
20260504042958 48 254 2.0 2.0 0.00 0.00 0.00 54 1013.2
20260504042454 48 220 0.0 0.0 0.00 0.00 0.00 54 1013.1
20260504041951 49 223 0.0 0.0 0.00 0.00 0.00 53 1013.2
20260504041448 49 218 0.0 0.0 0.00 0.00 0.00 53 1012.8
20260504040943 49 212 0.0 0.0 0.00 0.00 0.00 52 1012.9
20260504040441 49 219 0.0 0.0 0.00 0.00 0.00 52 1012.8
20260504035937 49 217 0.0 0.0 0.00 0.00 0.00 52 1013.1
20260504035435 49 201 0.0 0.0 0.00 0.00 0.00 51 1013.0
20260504034931 49 197 0.0 0.0 0.00 0.00 0.00 51 1012.7
20260504034429 49 206 0.0 0.0 0.00 0.00 0.00 51 1012.8
20260504033926 49 213 0.0 1.0 0.00 0.00 0.00 51 1012.7
20260504033423 49 218 0.0 0.0 0.00 0.00 0.00 51 1012.9
20260504032920 50 212 0.0 0.0 0.00 0.00 0.00 52 1012.7
20260504032417 50 211 0.0 0.0 0.00 0.00 0.00 49 1012.8
20260504031914 50 214 0.0 0.0 0.00 0.00 0.00 49 1012.8
20260504031411 51 206 0.0 0.0 0.00 0.00 0.00 49 1012.8
20260504030908 51 210 0.0 0.0 0.00 0.00 0.00 48 1012.6
20260504030405 51 213 0.0 0.0 0.00 0.00 0.00 48 1012.6
20260504025900 51 212 0.0 0.0 0.00 0.00 0.00 47 1012.5
20260504025358 51 204 0.0 0.0 0.00 0.00 0.00 48 1012.7
20260504024854 51 225 0.0 1.0 0.00 0.00 0.00 47 1012.6
20260504024351 51 199 0.0 1.0 0.00 0.00 0.00 47 1012.6
20260504023848 51 279 2.0 3.0 0.00 0.00 0.00 47 1012.6
20260504023345 51 190 0.0 0.0 0.00 0.00 0.00 47 1012.6
20260504022840 51 202 0.0 0.0 0.00 0.00 0.00 46 1012.8
20260504022337 52 245 2.0 2.0 0.00 0.00 0.00 45 1012.6
20260504021834 51 269 1.0 2.0 0.00 0.00 0.00 46 1012.7
20260504021331 51 210 0.0 0.0 0.00 0.00 0.00 46 1012.6
20260504020828 51 258 2.0 2.0 0.00 0.00 0.00 46 1012.5
20260504020325 51 195 0.0 0.0 0.00 0.00 0.00 46 1012.5
20260504015821 51 209 0.0 0.0 0.00 0.00 0.00 48 1012.6
20260504015317 51 212 0.0 0.0 0.00 0.00 0.00 47 1012.7
20260504014814 51 205 0.0 0.0 0.00 0.00 0.00 47 1012.5
20260504014309 51 206 0.0 0.0 0.00 0.00 0.00 46 1012.4
20260504013807 52 205 0.0 0.0 0.00 0.00 0.00 48 1012.3
20260504013305 52 201 0.0 0.0 0.00 0.00 0.00 46 1012.3
20260504012801 52 218 0.0 0.0 0.00 0.00 0.00 44 1012.3
20260504012259 52 214 0.0 0.0 0.00 0.00 0.00 47 1012.3
20260504011756 52 213 0.0 0.0 0.00 0.00 0.00 45 1012.2
20260504011253 52 212 0.0 0.0 0.00 0.00 0.00 47 1012.2
20260504010749 51 211 0.0 0.0 0.00 0.00 0.00 45 1012.0
20260504010244 52 210 0.0 0.0 0.00 0.00 0.00 46 1012.1
20260504005741 52 208 0.0 0.0 0.00 0.00 0.00 46 1011.9
20260504005238 52 208 0.0 0.0 0.00 0.00 0.00 47 1012.2
20260504004736 52 208 0.0 0.0 0.00 0.00 0.00 45 1012.0
20260504004233 53 208 0.0 0.0 0.00 0.00 0.00 46 1011.7
20260504003729 53 208 0.0 0.0 0.00 0.00 0.00 43 1011.9
20260504003227 54 208 0.0 0.0 0.00 0.00 0.00 41 1011.7
20260504002723 55 208 0.0 0.0 0.00 0.00 0.00 40 1011.7
20260504002220 55 208 0.0 0.0 0.00 0.00 0.00 39 1011.7
20260504001718 56 225 0.0 0.0 0.00 0.00 0.00 37 1011.5
20260504001215 56 191 0.0 1.0 0.00 0.00 0.00 36 1011.2
20260504000711 56 215 0.0 0.0 0.00 0.00 0.00 36 1011.3
20260504000208 57 199 0.0 0.0 0.00 0.00 0.00 36 1011.2
20260503235707 57 272 3.0 5.0 0.00 0.00 0.00 34 1011.2
20260503235203 57 197 1.0 1.0 0.00 0.00 0.00 35 1011.1
20260503234701 57 249 2.0 2.0 0.00 0.00 0.00 35 1011.1
20260503234159 58 164 0.0 0.0 0.00 0.00 0.00 34 1011.2
20260503233655 58 79 1.0 2.0 0.00 0.00 0.00 34 1011.1
20260503233151 59 286 4.0 5.0 0.00 0.00 0.00 32 1011.2
20260503232643 59 212 2.0 2.0 0.00 0.00 0.00 32 1011.0
20260503232140 59 205 1.0 2.0 0.00 0.00 0.00 32 1010.9
20260503231638 59 186 0.0 1.0 0.00 0.00 0.00 32 1010.6
20260503231134 59 224 2.0 3.0 0.00 0.00 0.00 31 1010.9
20260503230631 59 232 3.0 6.0 0.00 0.00 0.00 31 1011.0
20260503230128 59 216 1.0 1.0 0.00 0.00 0.00 33 1011.0
20260503225626 59 250 2.0 3.0 0.00 0.00 0.00 32 1010.9
20260503225125 59 248 1.0 1.0 0.00 0.00 0.00 31 1010.7
20260503224623 59 235 2.0 2.0 0.00 0.00 0.00 32 1010.8
20260503224121 59 239 3.0 5.0 0.00 0.00 0.00 30 1010.6
20260503223619 60 225 2.0 2.0 0.00 0.00 0.00 30 1010.8
20260503223114 61 206 4.0 5.0 0.00 0.00 0.00 31 1011.0
20260503222612 60 64 1.0 2.0 0.00 0.00 0.00 31 1010.8
20260503222109 60 355 3.0 5.0 0.00 0.00 0.00 30 1010.5
20260503221608 60 11 4.0 5.0 0.00 0.00 0.00 30 1010.7
20260503221105 60 244 3.0 5.0 0.00 0.00 0.00 30 1010.7
20260503220601 61 276 3.0 3.0 0.00 0.00 0.00 31 1010.6
20260503220058 61 188 3.0 5.0 0.00 0.00 0.00 30 1010.6
20260503215555 61 252 1.0 2.0 0.00 0.00 0.00 30 1010.7
20260503215052 61 214 2.0 2.0 0.00 0.00 0.00 30 1010.7
20260503214550 61 203 2.0 2.0 0.00 0.00 0.00 31 1010.7
20260503214046 61 251 3.0 3.0 0.00 0.00 0.00 31 1010.7
20260503213545 60 2 6.0 9.0 0.00 0.00 0.00 30 1010.5
20260503213041 61 306 3.0 3.0 0.00 0.00 0.00 30 1010.7
20260503212539 61 32 1.0 2.0 0.00 0.00 0.00 32 1010.5
20260503212036 61 270 3.0 6.0 0.00 0.00 0.00 31 1010.5
20260503211533 60 212 2.0 3.0 0.00 0.00 0.00 32 1010.7
20260503211028 61 240 3.0 5.0 0.00 0.00 0.00 30 1010.7
20260503210526 60 54 3.0 3.0 0.00 0.00 0.00 30 1010.6
20260503210021 60 244 6.0 8.0 0.00 0.00 0.00 30 1010.6
20260503205518 60 240 3.0 5.0 0.00 0.00 0.00 33 1010.7
20260503205015 60 286 8.0 11.0 0.00 0.00 0.00 29 1010.7
20260503204512 60 167 4.0 6.0 0.00 0.00 0.00 32 1010.6
20260503204009 60 295 6.0 8.0 0.00 0.00 0.00 29 1010.4
20260503203506 58 276 3.0 7.0 0.00 0.00 0.00 31 1010.4
20260503203003 59 15 3.0 6.0 0.00 0.00 0.00 31 1010.7
20260503202501 60 259 4.0 9.0 0.00 0.00 0.00 30 1010.5
20260503201959 59 19 5.0 8.0 0.00 0.00 0.00 30 1010.7
20260503201456 60 231 3.0 5.0 0.00 0.00 0.00 31 1010.7
20260503200953 61 215 2.0 3.0 0.00 0.00 0.00 31 1010.7
20260503200449 60 272 5.0 6.0 0.00 0.00 0.00 30 1010.8
20260503195946 59 247 5.0 8.0 0.00 0.00 0.00 31 1010.7
20260503195444 58 206 3.0 5.0 0.00 0.00 0.00 32 1010.8
20260503194940 59 297 6.0 10.0 0.00 0.00 0.00 31 1011.0
20260503194437 59 55 5.0 7.0 0.00 0.00 0.00 32 1010.9
20260503193932 59 45 6.0 8.0 0.00 0.00 0.00 31 1011.1
20260503193428 60 10 3.0 3.0 0.00 0.00 0.00 33 1010.8
20260503192923 59 215 1.0 1.0 0.00 0.00 0.00 33 1010.8
20260503192420 59 258 2.0 2.0 0.00 0.00 0.00 33 1011.2
20260503191916 59 22 5.0 7.0 0.00 0.00 0.00 31 1011.1
20260503191414 59 51 5.0 7.0 0.00 0.00 0.00 31 1011.2
20260503190910 59 24 6.0 7.0 0.00 0.00 0.00 31 1011.2
20260503190408 60 291 3.0 5.0 0.00 0.00 0.00 32 1011.3
20260503185904 58 305 4.0 6.0 0.00 0.00 0.00 33 1011.1
20260503185401 58 280 3.0 5.0 0.00 0.00 0.00 33 1010.9
20260503184900 59 295 6.0 10.0 0.00 0.00 0.00 32 1011.5